LKMT Weather Reports


time (UTC)temp
C
wind
direction
speed
KPH
gust
KPH
rain 1hr
cm
rain 24hr
cm
rain mn
cm
humidity
%
barometer
mb
20260507093230 20 220 25.7 0.0 0.00 0.00 0.00 56 1011.0
20260507092157 18 230 25.7 0.0 0.00 0.00 0.00 59
20260507090233 18 220 24.1 0.0 0.00 0.00 0.00 59 1011.0
20260507083231 17 230 22.5 0.0 0.00 0.00 0.00 63 1010.0
20260507082156 17 220 29.0 0.0 0.00 0.00 0.00 63
20260507080233 17 220 27.4 0.0 0.00 0.00 0.00 67 1010.0
20260507073223 17 230 25.7 0.0 0.00 0.00 0.00 67 1010.0
20260507072156 17 230 25.7 0.0 0.00 0.00 0.00 67
20260507070235 17 230 24.1 0.0 0.00 0.00 0.00 67 1010.0
20260507063231 16 240 16.1 0.0 0.00 0.00 0.00 72 1010.0
20260507062156 16 230 25.7 0.0 0.00 0.00 0.00 72
20260507060235 15 230 24.1 0.0 0.00 0.00 0.00 77 1010.0
20260507053224 15 250 24.1 0.0 0.00 0.00 0.00 77 1009.0
20260507052156 16 230 25.7 0.0 0.00 0.00 0.00 72
20260507050234 15 230 22.5 0.0 0.00 0.00 0.00 72 1009.0
20260507043224 15 240 20.9 0.0 0.00 0.00 0.00 72 1008.0
20260507042358 15 250 14.5 0.0 0.00 0.00 0.00 72
20260507040232 15 250 12.9 0.0 0.00 0.00 0.00 72 1008.0
20260507033224 16 210 24.1 0.0 0.00 0.00 0.00 67 1007.0
20260507032155 16 210 25.7 0.0 0.00 0.00 0.00 67
20260507030239 16 220 20.9 0.0 0.00 0.00 0.00 67 1007.0
20260507023223 17 220 20.9 0.0 0.00 0.00 0.00 63 1006.0
20260507022154 17 220 22.5 0.0 0.00 0.00 0.00 63
20260507020239 16 220 20.9 0.0 0.00 0.00 0.00 67 1007.0
20260507013224 17 190 24.1 0.0 0.00 0.00 0.00 63 1006.0
20260507012255 17 190 25.7 0.0 0.00 0.00 0.00 63
20260507010240 17 190 24.1 0.0 0.00 0.00 0.00 63 1006.0
20260507003223 17 190 19.3 0.0 0.00 0.00 0.00 63 1006.0
20260507002156 17 230 14.5 0.0 0.00 0.00 0.00 63
20260507000234 16 230 14.5 0.0 0.00 0.00 0.00 67 1006.0
20260506233224 17 190 16.1 0.0 0.00 0.00 0.00 59 1006.0
20260506232156 17 190 19.3 0.0 0.00 0.00 0.00 55
20260506230239 17 190 19.3 0.0 0.00 0.00 0.00 59 1006.0
20260506223223 17 190 16.1 0.0 0.00 0.00 0.00 59 1006.0
20260506222427 18 190 25.7 0.0 0.00 0.00 0.00 55
20260506220245 18 190 24.1 0.0 0.00 0.00 0.00 55 1006.0
20260506213231 18 190 24.1 0.0 0.00 0.00 0.00 55 1006.0
20260506212211 20 190 22.5 0.0 0.00 0.00 0.00 49
20260506210233 18 190 20.9 0.0 0.00 0.00 0.00 52 1006.0
20260506203222 20 190 22.5 0.0 0.00 0.00 0.00 49 1006.0
20260506202228 20 190 22.5 0.0 0.00 0.00 0.00 45
20260506200239 20 190 20.9 0.0 0.00 0.00 0.00 49 1006.0
20260506193232 21 190 24.1 0.0 0.00 0.00 0.00 46 1006.0
20260506192404 21 190 19.3 0.0 0.00 0.00 0.00 46
20260506190253 21 190 16.1 0.0 0.00 0.00 0.00 46 1005.0
20260506183245 21 190 16.1 0.0 0.00 0.00 0.00 46 1005.0
20260506182301 22 180 14.5 0.0 0.00 0.00 0.00 40
20260506180247 22 180 14.5 0.0 0.00 0.00 0.00 43 1005.0
20260506173238 22 180 16.1 0.0 0.00 0.00 0.00 43 1005.0
20260506172226 22 190 22.5 0.0 0.00 0.00 0.00 40
20260506170233 22 190 20.9 0.0 0.00 0.00 0.00 43 1005.0
20260506163238 22 190 19.3 0.0 0.00 0.00 0.00 43 1006.0
20260506162428 22 190 22.5 0.0 0.00 0.00 0.00 40
20260506160247 22 190 20.9 40.2 0.00 0.00 0.00 40 1006.0
20260506153238 22 190 24.1 0.0 0.00 0.00 0.00 40 1006.0
20260506152244 22 200 22.5 0.0 0.00 0.00 0.00 40
20260506150246 22 190 20.9 0.0 0.00 0.00 0.00 43 1006.0
20260506143238 23 210 24.1 0.0 0.00 0.00 0.00 41 1007.0
20260506142211 22 210 19.3 0.0 0.00 0.00 0.00 40
20260506140239 22 210 16.1 0.0 0.00 0.00 0.00 43 1007.0
20260506133238 23 220 24.1 0.0 0.00 0.00 0.00 41 1007.0
20260506132211 22 220 19.3 0.0 0.00 0.00 0.00 40
20260506130234 22 220 16.1 0.0 0.00 0.00 0.00 46 1007.0
20260506123230 22 200 19.3 0.0 0.00 0.00 0.00 40 1007.0
20260506122210 23 220 22.5 0.0 0.00 0.00 0.00 36
20260506120239 23 220 24.1 0.0 0.00 0.00 0.00 41 1007.0
20260506113230 22 230 27.4 0.0 0.00 0.00 0.00 43 1007.0
20260506112157 22 240 25.7 0.0 0.00 0.00 0.00 43
20260506110233 22 230 24.1 0.0 0.00 0.00 0.00 43 1007.0
20260506103230 22 230 29.0 0.0 0.00 0.00 0.00 46 1008.0
20260506102359 22 230 29.0 0.0 0.00 0.00 0.00 46
20260506100236 22 230 27.4 0.0 0.00 0.00 0.00 49 1008.0